Location: Molino di Ancona
(43.6167°N, 13.3667°E)
Time: 04:51:37
(UTC+00:00)

Cosmos 304 Rocket - Pass Details

Date: 15 December 2019
Orbit: 679 x 688 km, 74.0° (Epoch: 23 January)

Event Time Altitude Azimuth Distance (km) Brightness Sun altitude
Rises 05:21:47 0° 210° (SSW) 3,022 7.0 -12.3°
Reaches altitude 10° 05:24:07 10° 215° (SW) 2,112 6.2 -11.9°
Maximum altitude 05:28:47 56° 294° (WNW) 806 3.8 -11.1°
Drops below altitude 10° 05:33:30 10° 13° (NNE) 2,131 6.2 -10.3°
Sets 05:35:52 0° 17° (NNE) 3,052 7.1 -9.9°
